sat.trackr.live / text

‹ back to catalog

STARLINK-37135

NORAD 68602 · 2026-073A

PAYLOAD ACTIVE UNKNOWN

§ Identity

Operator
Country
US
Launch date
2026-04-07
Launch site
AFWTR
Launch vehicle
Mass (kg)
RCS (m²)

Purposes: comms

External: N2YO · Heavens-Above · Gunter

§ Orbital elements

Epoch: 2026-05-25T04:00:03.998880Z

Period
92.03 min
Inclination
97.2850°
Eccentricity
0.0001889
Mean motion
15.64724368 rev/d
Perigee alt
372.8 km
Apogee alt
375.3 km
Semi-major
6,752.2 km
B*
-2.2727e-2
RAAN
344.6356°
Arg perigee
97.4431°
Mean anomaly
155.3949°
Rev number
598

§ Raw data

STARLINK-371351 68602U 26073A   26145.16671295 -.01945289  00000+0 -22727-1 0  99952 68602  97.2850 344.6356 0001889  97.4431 155.3949 15.64724368  5984

JSON: /api/v1/satellites/68602 · /tle

For live sub-satellite position, see the globe view (requires WebGL).

§ Visibility from observer

Set your observer location to see the next 7 days of passes ≥ 10°. The values pass through the URL so the page stays shareable.

No JS? Fill the form by hand. The geolocation button needs JavaScript.